ゲーレルス第1彗星

90P/Gehrels 1 (2017)

English version
Home page
Updated on May 21, 2018

---------------------------------------------------------------------

・ プロフィール

・ 写真集

・ 軌道要素

Epoch 2017 June 16.0 TT = JDT 2457920.5
T 2017 June 19.24606 TT                                 MPCW
q   2.9749407            (2000.0)            P               Q
n   0.06593545     Peri.   29.26281     +0.73869300     -0.67294927
a   6.0681561      Node    13.25118     +0.58130459     +0.60721550
e   0.5097455      Incl.    9.63521     +0.34120027     +0.42240811
P  14.95
From 300 observations 1972 Oct. 11-2017 Nov. 2, mean residual 0".8.
     Nongravitational parameters Y1 = -0.09, Y2 = -0.0100.

・ 星図

・ 光度変化

        m1 = 4.5 + 5 logΔ + 22 log r(t - 130)

---------------------------------------------------------------------

軌道要素はM.P.E.C. 2017-V13に掲載されたものです。
星図はステラナビゲータ Ver.10 (アストロアーツ) で作成したものです。
光度グラフはComet for Windowsで作成したものです。

---------------------------------------------------------------------

Copyright(C) Seiichi Yoshida (comet@aerith.net). All rights reserved.